Location: O'Brien
(30.0517°N, 82.9900°W)
Time: 07:17:14
(UTC-04:00)

Hubble Space Telescope - Visible Passes

Search period start: 20 March 2019 00:00
Search period end: 30 March 2019 00:00
Orbit: 537 x 540 km, 28.5° (Epoch: 19 March)

Date Brightness Start Highest point End Pass type
(mag) Time Alt. Az. Time Alt. Az. Time Alt. Az.
21 Mar 3.1 21:31:02 10° SSW 21:31:59 14° SSW 21:31:59 14° SSW visible
22 Mar 2.4 21:20:11 10° SW 21:22:33 23° S 21:22:33 23° S visible
23 Mar 1.7 21:09:26 10° SW 21:13:02 32° SSE 21:13:02 32° SSE visible
24 Mar 1.4 20:58:46 10° SW 21:02:37 38° SSE 21:03:28 34° SE visible
25 Mar 1.2 20:48:09 10° WSW 20:52:06 45° SSE 20:53:49 28° ESE visible
25 Mar 3.9 22:29:03 10° W 22:29:10 11° W 22:29:10 11° W visible
26 Mar 1.1 20:37:34 10° WSW 20:41:36 52° SSE 20:44:06 21° E visible
26 Mar 3.5 22:18:34 10° W 22:19:27 16° W 22:19:27 16° W visible
27 Mar 1.0 20:27:02 10° WSW 20:31:07 59° S 20:34:20 15° E visible
27 Mar 3.0 22:08:06 10° W 22:09:41 22° W 22:09:41 22° W visible
28 Mar 0.9 20:16:31 10° WSW 20:20:37 64° S 20:24:32 11° E visible
28 Mar 2.4 21:57:38 10° W 21:59:53 30° W 21:59:53 30° W visible
29 Mar 0.9 20:06:01 10° WSW 20:10:08 69° S 20:14:15 10° E visible
29 Mar 1.8 21:47:10 10° W 21:50:02 40° WSW 21:50:02 40° WSW visible
